Regional Weather Roundup
Issued by NWS

Home | Current Version | Previous Version | Graphics & Text | Print | Product List | Glossary On
Versions: 1 2 3 4 5 6 7 8 9 10 11 12 13 14 15 16 17 18 19 20 21 22 23 24 25 26 27 28 29 30 31 32 33 34 35 36 37 38 39 40 41 42 43 44 45 46 47 48 49 50
697
ASUS44 KMEG 241210
RWRTN
TENNESSEE HOURLY STATE WEATHER ROUNDUP
NATIONAL WEATHER SERVICE MEMPHIS TN
700 AM CDT SAT JUN 24 2017

TNZ002-004-019-021-049-052-054-088>092-241300-
WEST TENNESSEE

CITY           SKY/WX    TMP DP  RH WIND       PRES   REMARKS
MEMPHIS INTL   CLOUDY    71  66  84 N8        30.04R
NWS MEMPHIS      N/A     68 N/A N/A MISG        N/A
JACKSON        MOSUNNY   70  66  87 N6        30.04R
SOMERVILLE     SUNNY     70  68  94 N5        30.04R
COVINGTON      SUNNY     68  64  88 N6        30.06R
UNION CITY     SUNNY     68  63  83 N3        30.05R
BOLIVAR        SUNNY     70  66  88 VRB5      30.04R
PARIS          SUNNY     66  63  88 N6        30.04R
HUNTINGDON     SUNNY     68  63  83 N6        30.03R
LEXINGTON      SUNNY     70  66  88 N6        30.03R
SELMER         MOSUNNY   70  68  94 N8G14     30.03R
SAVANNAH       CLOUDY    73  72  94 N7        30.01R
$$

TNZ008-025-027-028-033-062-065-066-241300-
NORTH MIDDLE TENNESSEE

CITY           SKY/WX    TMP DP  RH WIND       PRES   REMARKS
NASHVILLE      PTSUNNY   72  66  81 NW7       30.01R
PORTLAND       SUNNY     68  66  94 NW5       30.01R
CLARKSVILLE    PTSUNNY   68  64  87 N8        30.03R
SMYRNA         MOSUNNY   72  68  87 NW6       30.01R
COOKEVILLE     PTSUNNY   72  70  94 CALM      29.99R
GALLATIN       SUNNY     70  68  94 CALM      30.03R
CROSSVILLE     CLOUDY    71  69  93 NW6       30.02R
$$

TNZ061-075-076-078-094-096-097-241300-
SOUTH MIDDLE TENNESSEE

CITY           SKY/WX    TMP DP  RH WIND       PRES   REMARKS
FAYETTEVILLE   CLOUDY    73  72  94 N6        30.00
TULLAHOMA        N/A     72  70  94 N9        30.01R
WINCHESTER     CLOUDY    72  70  94 W6          N/A
COLUMBIA       SUNNY     72  70  94 CALM      30.00R
SHELBYVILLE    CLOUDY    72  70  94 N8        30.00R
$$

TNZ017-018-042-046-047-241300-
NORTHEAST TENNESSEE

CITY           SKY/WX    TMP DP  RH WIND       PRES   REMARKS
TRI CITIES     CLOUDY    69  66  90 CALM      30.00R
ELIZABETHTON     N/A     68  64  88 CALM      30.00R
$$

TNZ012-013-036-069-073-074-241300-
CENTRAL EAST TENNESSEE

CITY           SKY/WX    TMP DP  RH WIND       PRES   REMARKS
KNOXVILLE      RAIN      69  66  90 W9        29.97R FOG
OAK RIDGE      CLOUDY    69  66  90 CALM      29.98R
DOWNTOWN KNOXV PTSUNNY   72  70  94 W5G13     29.96R
MORRISTOWN     CLOUDY    68  68 100 NE3       29.97R FOG
JACKSBORO      CLOUDY    70  70 100 CALM      30.01R
$$

TNZ083-085-099-241300-
SOUTHEAST TENNESSEE

CITY           SKY/WX    TMP DP  RH WIND       PRES   REMARKS
CHATTANOOGA    CLOUDY    75  72  90 S8        29.97R FOG
$$

SKY/WX REPORTED AS FAIR MEANS FEW OR NO CLOUDS BELOW
12 THOUSAND FEET.





USA.gov is the U.S. government's official web portal to all federal, state and local government web resources and services.